Weather History for KSBM - September, 2013

Change the Weather History Date:

Sunday, September 29, 2013

  Actual Average (KETB) Record (KETB)
Temperature  
Mean Temperature 55 °F -  
Max Temperature 68 °F 66 °F - (-1)
Min Temperature 44 °F 45 °F - (-1)
Degree Days  
Heating Degree Days 10    
Growing Degree Days 5 (Base 50)    
Moisture  
Dew Point 49 °F    
Average Humidity 85    
Maximum Humidity 100    
Minimum Humidity 44    
Precipitation  
Precipitation 0.02 in - - ()
Sea Level Pressure  
Sea Level Pressure 30.01 in    
Wind  
Wind Speed 5 mph (WNW)    
Max Wind Speed 9 mph    
Max Gust Speed -    
Visibility 8 miles    
Events Fog , Rain    
Averages and records for this station are not official NWS values.
T = Trace of Precipitation, MM = Missing Value Source: NWS Daily Summary

Daily Weather History Graph

Daily Weather History Graph

Search for Another Location

Airport or City:

Trip Planner

Search our weather history database for the weather conditions in past years. The results will help you decide how hot, cold, wet, or windy it might be!

Date:

Astronomy

Sep. 29, 2013 Rise Set
Actual Time 6:46 AM CDT 6:35 PM CDT
Civil Twilight 6:18 AM CDT 7:04 PM CDT
Nautical Twilight 5:44 AM CDT 7:37 PM CDT
Astronomical Twilight 5:10 AM CDT 8:11 PM CDT
Moon 1:19 AM CDT 3:39 PM CDT
Length of Visible Light 12h 45m
Length of Day
11h 48m
Waning Crescent, 27% of the Moon is Illuminated
Sep 29
Waning Crescent
Oct 4
New
Oct 11
First Quarter
Oct 18
Full
Oct 26
Last Quarter

Hourly Weather History & Observations

Time (CDT) Temp. Windchill Dew Point Humidity Pressure Visibility Wind Dir Wind Speed Gust Speed Precip Events Conditions
12:53 AM 55.0 °F - 54.0 °F 96% 29.95 in 10.0 mi West 6.9 mph - 0.01 in   Mostly Cloudy
1:22 AM 55.4 °F - 53.6 °F 94% 29.96 in 10.0 mi WNW 6.9 mph - N/A   Mostly Cloudy
1:53 AM 54.0 °F - 53.1 °F 97% 29.97 in 10.0 mi WNW 4.6 mph - N/A   Mostly Cloudy
2:02 AM 53.6 °F - 53.6 °F 100% 29.97 in 10.0 mi West 4.6 mph - 0.01 in   Scattered Clouds
2:53 AM 52.0 °F - 52.0 °F 100% 29.97 in 10.0 mi West 6.9 mph - 0.01 in   Clear
3:53 AM 50.0 °F - 50.0 °F 100% 29.98 in 10.0 mi West 4.6 mph - N/A   Clear
4:53 AM 48.9 °F - 48.9 °F 100% 29.99 in 10.0 mi West 4.6 mph - N/A   Clear
5:23 AM 46.4 °F - 46.4 °F 100% 30.00 in 1.8 mi Calm Calm - N/A   Clear
5:33 AM 46.4 °F - 46.4 °F 100% 30.00 in 0.5 mi Calm Calm - N/A Fog Fog
5:46 AM 44.6 °F - 44.6 °F 100% 30.00 in 0.2 mi Calm Calm - N/A Fog Fog
5:53 AM 46.9 °F - 46.9 °F 100% 30.01 in 0.8 mi WNW 3.5 mph - N/A   Mist
5:55 AM 46.4 °F 45.2 °F 46.4 °F 100% 30.00 in 1.2 mi WNW 3.5 mph - N/A   Partly Cloudy
5:58 AM 48.2 °F - 48.2 °F 100% 30.00 in 3.0 mi WNW 3.5 mph - N/A   Clear
6:53 AM 48.0 °F - 48.0 °F 100% 30.02 in 10.0 mi NW 5.8 mph - N/A   Clear
7:53 AM 52.0 °F - 50.0 °F 93% 30.03 in 10.0 mi NW 6.9 mph - N/A   Clear
8:53 AM 55.0 °F - 52.0 °F 89% 30.04 in 10.0 mi NW 8.1 mph - N/A   Clear
9:53 AM 57.9 °F - 51.1 °F 78% 30.06 in 10.0 mi WNW 5.8 mph - N/A   Clear
10:53 AM 63.0 °F - 46.9 °F 56% 30.06 in 10.0 mi ENE 6.9 mph - N/A   Clear
11:53 AM 64.0 °F - 45.0 °F 50% 30.06 in 10.0 mi Variable 3.5 mph - N/A   Clear
12:53 PM 66.0 °F - 46.0 °F 48% 30.05 in 10.0 mi Variable 3.5 mph - N/A   Clear
1:53 PM 66.9 °F - 44.1 °F 44% 30.03 in 10.0 mi Variable 4.6 mph - N/A   Clear
2:53 PM 66.0 °F - 46.0 °F 48% 30.02 in 10.0 mi ESE 8.1 mph - N/A   Clear
3:53 PM 64.9 °F - 46.9 °F 52% 30.01 in 10.0 mi ESE 9.2 mph - N/A   Clear
4:53 PM 63.0 °F - 48.0 °F 58% 30.01 in 10.0 mi SSE 8.1 mph - N/A   Clear
5:53 PM 61.0 °F - 48.9 °F 64% 30.01 in 10.0 mi SSE 5.8 mph - N/A   Clear
6:53 PM 54.0 °F - 48.9 °F 83% 30.01 in 10.0 mi Calm Calm - 0.00 in Rain Light Rain
7:53 PM 52.0 °F - 48.9 °F 89% 30.02 in 10.0 mi Calm Calm - 0.00 in   Clear
8:53 PM 48.0 °F - 48.0 °F 100% 30.02 in 10.0 mi Calm Calm - N/A   Clear
9:53 PM 50.0 °F - 48.9 °F 96% 30.02 in 10.0 mi Calm Calm - N/A   Clear
10:53 PM 48.0 °F - 46.0 °F 93% 30.02 in 10.0 mi Calm Calm - N/A   Clear
11:53 PM 48.0 °F - 46.9 °F 96% 30.01 in 10.0 mi Calm Calm - N/A   Clear